[[{"header":{"parameterUnit":"m.s-1","parameterCategory":1,"la1":30.2992,"la2":30.254,"lo1":-89.0895,"lo2":-89.0443,"dy":0.0025,"dx":0.0025,"nx":19,"ny":19,"refTime":"2026-05-03T03:00:00:Z","depth":0,"parameterNumber":2,"parameterNumberName":"U-component_of_WINDS"},"data":[0,0,0,-1.5741,-1.5746,-1.5972,-1.5973,-1.6283,-1.6286,0,0,0,0,0,0,0,0,0,0,0,-1.5684,-1.5687,-1.574,-1.5746,-1.5972,-1.5973,-1.6283,-1.6286,0,0,0,0,0,0,0,0,0,0,0,-1.5683,-1.5686,-1.5689,-1.5747,-1.5972,-1.5973,-1.6282,-1.6105,0,0,0,0,0,0,0,0,0,0,-1.5882,-1.584,-1.5686,-1.5689,-1.5748,-1.5972,-1.5973,-1.6096,-1.6116,-1.6189,0,-1.6256,0,-1.6276,-1.6308,-1.6309,0,0,0,-1.5739,-1.5823,-1.5874,-1.569,-1.5751,-1.5971,-1.5868,-1.6107,-1.6129,-1.6216,-1.626,-1.6271,-1.6281,-1.631,-1.6312,-1.6757,-1.6759,0,0,-1.5727,-1.5732,-1.5858,-1.5889,-1.5853,-1.5861,-1.5875,-1.612,-1.6169,-1.6261,-1.6278,-1.6286,-1.6313,-1.6315,-1.6754,-1.6757,0,0,0,-1.5696,-1.5723,-1.5768,-1.5877,-1.5916,-1.5868,-1.5884,-1.6158,-1.6172,-1.6281,-1.629,-1.6314,-1.6319,-1.6752,-1.6756,-1.6882,0,0,0,-1.5688,-1.5705,-1.5763,-1.5768,-1.5911,-1.6039,-1.5917,-1.6155,-1.6183,-1.6288,-1.6315,-1.6322,-1.6749,-1.6754,-1.6873,-1.6943,0,0,0,-1.5666,-1.5702,-1.5738,-1.5768,-1.5865,-1.6035,-1.6063,-1.6161,-1.6189,-1.631,-1.6323,-1.6747,-1.6753,-1.6864,-1.6929,-1.7064,0,0,0,-1.5645,-1.5847,-1.574,-1.5969,-1.5863,-1.6109,-1.6061,-1.6245,-1.6364,-1.6316,-1.675,-1.6755,-1.6862,-1.6921,-1.7055,-1.7182,-1.7233,0,0,-1.5903,-1.5879,-1.6013,-1.5924,-1.6191,-1.6075,-1.6361,-1.6466,-1.6473,-1.6662,-1.6673,-1.6876,-1.6928,-1.7062,-1.7513,-1.7555,0,0,0,-1.6097,-1.6194,-1.6263,-1.6375,-1.6458,-1.6536,-1.6595,-1.6634,-1.6794,-1.657,-1.6958,-1.6989,-1.7068,-1.7128,-1.7164,-1.7233,-1.6782,-1.6781,-1.6781,-1.6473,-1.647,-1.6693,-1.6717,-1.6826,-1.6884,-1.6974,-1.7037,-1.7002,-1.7093,-1.7152,-1.7425,-1.7496,-1.7523,-1.7595,-1.7213,-1.7214,-1.7214,-1.7215,-1.6855,-1.6994,-1.6941,-1.7139,-1.7135,-1.7301,-1.7365,-1.7335,-1.7492,-1.7381,-1.745,-1.7335,-1.7568,-1.7631,-1.7224,-1.7223,-1.7221,-1.7221,-1.722,-1.7106,-1.7172,-1.7213,-1.7375,-1.7501,-1.7517,-1.767,-1.7659,-1.7651,-1.7719,-1.7782,-1.778,-1.7781,-1.7748,-1.7749,-1.775,-1.7751,-1.7752,-1.7752,-1.7352,-1.7394,-1.7523,-1.7627,-1.7698,-1.779,-1.7849,-1.792,-1.7996,-1.7977,-1.7977,-1.7937,-1.7589,-1.7505,-1.7767,-1.7765,-1.7763,-1.7761,-1.776,-1.775,-1.7658,-1.7858,-1.7929,-1.805,-1.8177,-1.816,-1.8304,-1.836,-1.8437,-1.8379,-1.8122,-1.8097,-1.807,-1.8001,-1.8376,-1.8376,-1.8376,-1.8376,-1.7966,-1.795,-1.8153,-1.8268,-1.8378,-1.8382,-1.8612,-1.8659,-1.8695,-1.873,-1.8673,-1.8578,-1.8549,-1.8542,-1.8504,-1.844,-1.8918,-1.8919,-1.8919,-1.8213,-1.8207,-1.8405,-1.8435,-1.8529,-1.861,-1.8827,-1.8962,-1.8983,-1.8941,-1.8759,-1.8736,-1.8582,-1.8532,-1.8493,-1.8433,-1.8315,0,0]},{"header":{"parameterUnit":"m.s-1","parameterCategory":1,"la1":30.2992,"la2":30.254,"lo1":-89.0895,"lo2":-89.0443,"dy":0.0025,"dx":0.0025,"nx":19,"ny":19,"refTime":"2026-05-03T03:00:00:Z","depth":0,"parameterNumber":3,"parameterNumberName":"V-component_of_WINDS"},"data":[0,0,0,-3.3293,-3.3296,-3.3441,-3.3441,-3.363,-3.3631,0,0,0,0,0,0,0,0,0,0,0,-3.3254,-3.3256,-3.3292,-3.3296,-3.3441,-3.3441,-3.3629,-3.3631,0,0,0,0,0,0,0,0,0,0,0,-3.3253,-3.3255,-3.3257,-3.3297,-3.3441,-3.3441,-3.3629,-3.3518,0,0,0,0,0,0,0,0,0,0,-3.3376,-3.3346,-3.3255,-3.3257,-3.3297,-3.344,-3.3441,-3.3513,-3.3525,-3.3566,0,-3.3606,0,-3.3622,-3.3644,-3.3645,0,0,0,-3.3292,-3.3336,-3.3371,-3.3257,-3.3299,-3.344,-3.3374,-3.3519,-3.3533,-3.3583,-3.3609,-3.3616,-3.3625,-3.3646,-3.3647,-3.3902,-3.3904,0,0,-3.3284,-3.3282,-3.3361,-3.338,-3.3361,-3.337,-3.3379,-3.3528,-3.3555,-3.361,-3.362,-3.3628,-3.3647,-3.3649,-3.3901,-3.3903,0,0,0,-3.3264,-3.3277,-3.3308,-3.3373,-3.3399,-3.3374,-3.3385,-3.3549,-3.3559,-3.3622,-3.3631,-3.3648,-3.3651,-3.39,-3.3902,-3.3968,0,0,0,-3.3259,-3.3265,-3.3305,-3.3305,-3.3396,-3.3476,-3.3402,-3.3549,-3.3566,-3.363,-3.3648,-3.3652,-3.3898,-3.3901,-3.3963,-3.4,0,0,0,-3.3243,-3.3263,-3.3286,-3.3305,-3.3367,-3.3474,-3.3493,-3.3553,-3.3571,-3.3645,-3.3653,-3.3897,-3.39,-3.3959,-3.3992,-3.4066,0,0,0,-3.3225,-3.3343,-3.3287,-3.3421,-3.3366,-3.3515,-3.3492,-3.3602,-3.3674,-3.3649,-3.3898,-3.3902,-3.3957,-3.3988,-3.4061,-3.4127,-3.4155,0,0,-3.3372,-3.336,-3.3439,-3.3393,-3.3552,-3.3493,-3.366,-3.3726,-3.3734,-3.3845,-3.3851,-3.3965,-3.3992,-3.4065,-3.4311,-3.4333,0,0,0,-3.3485,-3.3541,-3.3584,-3.3652,-3.3707,-3.3756,-3.3797,-3.3821,-3.3916,-3.3792,-3.4012,-3.4028,-3.407,-3.4102,-3.4121,-3.4157,-3.3916,-3.3916,-3.3916,-3.3689,-3.3694,-3.3824,-3.3846,-3.3912,-3.3953,-3.4007,-3.4046,-3.4031,-3.4083,-3.4116,-3.4265,-3.4302,-3.4316,-3.4354,-3.4151,-3.4151,-3.4152,-3.4152,-3.3904,-3.3984,-3.3961,-3.4079,-3.4082,-3.4181,-3.4223,-3.4209,-3.4299,-3.4241,-3.4279,-3.4214,-3.434,-3.4373,-3.4157,-3.4156,-3.4155,-3.4155,-3.4155,-3.4038,-3.4078,-3.4106,-3.4205,-3.428,-3.4296,-3.4384,-3.4384,-3.4384,-3.4421,-3.4455,-3.4454,-3.4452,-3.4437,-3.4438,-3.4438,-3.4439,-3.4439,-3.444,-3.4167,-3.4196,-3.4272,-3.4338,-3.4381,-3.4438,-3.4479,-3.452,-3.4566,-3.4558,-3.4559,-3.4537,-3.4352,-3.4305,-3.4448,-3.4446,-3.4445,-3.4444,-3.4444,-3.4382,-3.4333,-3.4449,-3.4493,-3.457,-3.4643,-3.4641,-3.4726,-3.476,-3.4803,-3.4773,-3.4636,-3.4624,-3.4609,-3.457,-3.4772,-3.4772,-3.4772,-3.4772,-3.4495,-3.4489,-3.4607,-3.4676,-3.4743,-3.4752,-3.4881,-3.4913,-3.4938,-3.4958,-3.4929,-3.4877,-3.4862,-3.4858,-3.4838,-3.4802,-3.5059,-3.5059,-3.5059,-3.4627,-3.4627,-3.4738,-3.4763,-3.4823,-3.4874,-3.4994,-3.5072,-3.5089,-3.5071,-3.4974,-3.4962,-3.4879,-3.4852,-3.4831,-3.48,-3.4733,0,0]}]]